Tracking 19193 objects as of 24-Jun-2018
HD Live streaming from Space Station
objects crossing your sky now

SCOUT X-1 DEB

Track SCOUT X-1 DEB now!
10-day predictions


NORAD ID: 4026
Int'l Code: 1961-004G
Perigee: 558.6 km
Apogee: 1,395.8 km
Inclination: 38.8 °
Period: 104.5 minutes
Semi major axis: 7348 km
RCS: 0.0614 m2 (small)
Launch date: February 16, 1961
Source: United States (US)
Launch site: WALLOPS ISLAND (WLPIS)

Note: This is SATELLITE DEBRIS
aabbcc
Your satellite tracking list
Your tracking list is empty




NASA's NSSDC Master Catalog

Two Line Element Set (TLE):
1  4026U 61004G   18174.62175030 +.00000010 +00000-0 +30636-4 0  9991
2  4026 038.8370 278.0842 0569683 013.4199 348.1009 13.78267787727667
Source of the keplerian elements: AFSPC